Location: *
(48.8667°N, 2.3331°E)
Time: 09:30:39
(UTC+00:00)

Cosmos 2061 Rocket - Pass Details

Date: 13 August 2020
Orbit: 966 x 1012 km, 82.9° (Epoch: 23 September)

Event Time Altitude Azimuth Distance (km) Brightness Sun altitude
Exits shadow 00:38:08 - 267° (W) 3,269 6.6 -25.9°
Reaches altitude 10° 00:41:47 10° 295° (WNW) 2,714 6.5 -25.7°
Maximum altitude 00:43:03 11° 307° (NW) 2,671 6.6 -25.7°
Drops below altitude 10° 00:44:19 10° 319° (NW) 2,717 6.8 -25.6°
Sets 00:49:37 0° 357° (N) 3,672 8.2 -25.4°
